Погода в Ясенской Переправе

Россия / Краснодарский край     46°15′05″N   38°17′39″E
В апреле 2022 года жителям России запретили посещать сайт meteo.paraplan.net по решению Генеральной прокуратуры. Аудитория сайта уменьшилась в 10 раз. Владельцы сайта не видят смысла в поддержке погодного сервера в таких условиях. Сайт будет закрыт в октябре.
темп.,
°C
ветер,
м/с
пор.,
м/с
влажн.,
%
обл.,
%
осадки,
мм/ч
давл.,
гПа
погр.,
м
4 октября, вт
вт400:00+17юв5563100 0.0 1013323
03:00+16ю346398 0.2 1013244
06:00+16юв3462100 0.0 1013221
09:00+16юв1163100 0.1 1014196
12:00+15ююв4475100 0.5 1015348
15:00+16зюз34775 0.6 1016359
18:00+17з347446 0.0 1017317
21:00+17зсз34705 0.0 1019482
5 октября, ср
ср500:00+17сз456727 0.0 1020577
03:00+15ссз566178 0.0 1021334
06:00+14ссз5665100 0.0 1022356
09:00+15ссз566192 0.0 1023548
12:00+16зсз445056 0.0 1025785
15:00+16з55562 0.0 1025692
18:00+16зсз66590 0.0 1025744
21:00+16зсз45610 0.0 1026561
6 октября, чт
чт600:00+16ссз45610 0.0 1026552
03:00+15ссз336213 0.0 1026269
06:00+14с2363100 0.0 1026182
09:00+15с225866 0.0 1026244
12:00+17зсз22505 0.0 1026667
15:00+17зсз5454100 0.0 1025771
18:00+17с555181 0.0 1026486
21:00+16ссв34520 0.0 1026183
7 октября, пт
пт700:00+15ссв44570 0.0 1026168
03:00+15св34610 0.0 1026149
06:00+14всв44640 0.0 1026164
09:00+15всв45600 0.0 1025262
12:00+18всв35503 0.0 1025606
15:00+20св44485 0.0 1023407
18:00+19ссв68537 0.0 1023156
21:00+17св611575 0.0 1023320
8 октября, сб
сб800:00+16всв611575 0.0 1022365
03:00+16всв7125815 0.0 1021398
06:00+15всв9156148 0.0 1021460
09:00+16всв1016595 0.0 1020716
12:00+20в11145010 0.0 1018781
15:00+21в9124554 0.0 1017604
18:00+20всв81252100 0.0 1017347
21:00+19всв91454100 0.0 1016466